This demonstration page uses our WeatherBlox Daily Observations layout. Learn more.

Left ArrowRight Arrow

Hourly Observations for November 3, 2022

Temp ( °F °C ) Dew Point ( °F °C ) Humidity (%) Winds ( mph kmh ) Pressure ( in mb ) Visibility ( mi km ) Precip ( " mm )
12:56 am 00:56 Clear 58 14.4 52 11.1 81 81 S 22 35 29.75 1007 10 16 0.00 0.00
1:56 am 01:56 Clear 56 13.3 53 11.7 90 90 S 20 31 29.73 1007 10 16 0.00 0.00
2:47 am 02:47 Mostly Cloudy 55 13 54 12 94 94 S 16 26 29.74 1007 10 16 0.00 0.00
2:56 am 02:56 Mostly Cloudy 55 12.8 53 11.7 93 93 S 15 24 29.72 1007 10 16 0.00 0.00
3:56 am 03:56 Mostly Cloudy 55 12.8 52 11.1 89 89 SSE 14 22 29.70 1006 10 16 0.00 0.00
4:56 am 04:56 Cloudy 54 12.2 53 11.7 97 97 SSE 10 17 29.70 1006 10 16 0.00 0.00
5:56 am 05:56 Partly Cloudy 54 12.2 52 11.1 93 93 S 17 28 29.68 1005 10 16 0.00 0.00
6:56 am 06:56 Clear 55 12.8 52 11.1 89 89 S 16 26 29.66 1005 10 16 0.00 0.00
7:56 am 07:56 Clear 54 12.2 52 11.1 93 93 SSW 14 22 29.68 1005 10 16 0.00 0.00
8:56 am 08:56 Sunny 55 12.8 52 11.1 89 89 SSW 16 26 29.70 1006 10 16 0.00 0.00
9:56 am 09:56 Sunny 56 13.3 53 11.7 90 90 SSW 16 26 29.72 1006 10 16 0.00 0.00
10:25 am 10:25 Mostly Cloudy 57 14 54 12 88 88 SSW 13 20 29.73 1007 10 16 0.00 0.00
10:56 am 10:56 Cloudy 58 14.4 54 12.2 87 87 WSW 14 22 29.74 1007 10 16 0.00 0.00
11:56 am 11:56 Cloudy 55 12.8 47 8.3 74 74 NW 16 26 29.77 1008 10 16 0.00 0.00
12:56 pm 12:56 Partly Cloudy 53 11.7 41 5 63 63 NNW 17 28 29.78 1009 10 16 0.00 0.00
1:56 pm 13:56 Mostly Sunny 54 12.2 40 4.4 59 59 N 16 26 29.78 1008 10 16 0.00 0.00
2:56 pm 14:56 Mostly Sunny 51 10.6 38 3.3 61 61 N 18 30 29.79 1009 10 16 0.00 0.00
3:56 pm 15:56 Sunny 48 8.9 35 1.7 61 61 N 18 30 29.80 1009 10 16 0.00 0.00
4:56 pm 16:56 Cloudy 46 7.8 34 1.1 63 63 N 23 37 29.81 1010 10 16 0.00 0.00
5:56 pm 17:56 Cloudy 43 6.1 32 0 65 65 N 22 35 29.85 1011 10 16 0.00 0.00
6:56 pm 18:56 Mostly Cloudy 41 5 31 -0.6 67 67 N 18 30 29.87 1011 10 16 0.00 0.00
7:56 pm 19:56 Cloudy 41 5 30 -1.1 65 65 N 20 31 29.89 1012 10 16 0.00 0.00
8:56 pm 20:56 Cloudy 39 3.9 29 -1.7 67 67 N 21 33 29.91 1013 10 16 0.01 0.13
9:56 pm 21:56 Cloudy 39 3.9 28 -2.2 64 64 N 21 33 29.92 1013 10 16 0.00 0.00
10:56 pm 22:56 Cloudy 38 3.3 28 -2.2 67 67 NNE 17 28 29.93 1013 10 16 0.00 0.00
11:56 pm 23:56 Cloudy 39 3.9 27 -2.8 62 62 N 18 30 29.95 1014 10 16 0.00 0.00

Powered by AerisWeather